Lid_Strength_Index
12 12 12 13 13 14 14 13 13 14 14 14 14 14 14 15 15 15 15 16 16 16
13 13 14 14 14 15 15 15 15 15 16 16 16 16 16 17 18 18 18 18 18 18
14 15 15 15 16 17 17 17 17 18 18 18 18 18 18 19 19 19 19 19 19 19
16 17 17 18 18 19 19 19 20 20 19 19 19 19 19 19 19 20 20 19 20 20
18 18 19 19 20 20 20 20 20 19 19 19 20 19 20 20 20 21 21 21 21 21
18 19 19 20 19 20 20 20 20 20 21 21 21 20 20 21 20 21 21 21 21 20
19 19 18 18 19 19 19 19 19 19 20 21 21 20 20 20 21 20 20 19 19 19
18 18 18 19 19 19 19 19 18 18 18 18 17 18 20 19 20 20 20 19 18 18
19 19 18 18 18 18 18 18 18 18 18 18 16 15 15 18 19 19 19 20 20 19
19 19 19 19 19 19 19 18 18 17 17 17 16 14 15 16 18 19 19 20 20 20
20 20 20 20 20 19 19 19 18 18 17 17 15 14 15 16 18 19 19 20 21 22
20 20 20 20 20 19 19 19 19 19 19 18 17 15 16 18 19 20 20 21 22 22
20 20 21 20 20 19 19 19 19 19 19 19 19 15 16 18 20 21 22 22 23 21
20 20 20 20 20 20 20 20 20 20 20 19 19 18 17 17 20 21 23 23 24 24